EW1476 Weather Reports


Display with metric or nautical units.
time (UTC)temp
F
wind
direction
speed
MPH
gust
MPH
rain 1hr
in
rain 24hr
in
rain mn
in
humidity
%
barometer
mb
20200711003801 78 51 0.0 0.0 0.00 0.00 0.00 82 1008.4
20200711000801 80 51 0.0 0.0 0.00 0.00 0.00 77 1008.1
20200710233801 81 51 0.0 0.0 0.00 0.00 0.00 74 1007.7
20200710230801 82 51 0.0 0.0 0.00 0.00 0.00 74 1008.0
20200710223801 82 48 0.0 0.0 0.00 0.00 0.00 73 1008.1
20200710220831 82 322 0.0 0.0 0.00 0.00 0.00 74 1008.3
20200710213801 82 27 0.0 0.0 0.00 0.00 0.00 74 1008.4
20200710210801 82 335 0.0 0.0 0.00 0.00 0.00 74 1008.5
20200710203801 81 325 0.0 0.0 0.00 0.00 0.00 76 1008.7
20200710200800 81 342 0.0 0.0 0.00 0.00 0.00 76 1009.3
20200710193801 82 23 0.0 0.0 0.00 0.00 0.00 75 1009.3
20200710190801 81 344 0.0 0.0 0.00 0.00 0.00 77 1009.5
20200710183801 81 323 0.0 0.0 0.00 0.00 0.00 77 1009.8
20200710180801 81 316 0.0 0.0 0.00 0.00 0.00 78 1010.1
20200710173801 80 330 0.0 0.0 0.00 0.00 0.00 81 1010.5
20200710170801 80 318 0.0 0.0 0.00 0.00 0.00 81 1011.0
20200710163801 79 337 0.0 0.0 0.00 0.00 0.00 82 1011.7
20200710160801 78 9 0.0 0.0 0.00 0.00 0.00 85 1011.7
20200710153801 78 319 0.0 0.0 0.00 0.00 0.00 85 1011.9
20200710150801 77 323 0.0 0.0 0.00 0.00 0.00 88 1011.9
20200710143801 76 323 0.0 0.0 0.00 0.00 0.00 89 1011.9
20200710140801 75 333 0.0 0.0 0.00 0.00 0.00 91 1011.8
20200710133801 75 335 0.0 0.0 0.00 0.00 0.00 91 1012.3
20200710130801 74 337 0.0 0.0 0.00 0.00 0.00 94 1012.3
20200710123801 72 11 0.0 0.0 0.00 0.00 0.00 95 1012.2
20200710120801 72 10 0.0 0.0 0.00 0.00 0.00 95 1012.7
20200710113801 72 103 0.0 0.0 0.00 0.00 0.00 95 1012.7
20200710110801 72 13 0.0 1.0 0.00 0.00 0.00 95 1012.6
20200710103801 72 123 0.0 0.0 0.00 0.00 0.00 95 1012.5
20200710100801 71 123 0.0 0.0 0.00 0.00 0.00 95 1012.8
20200710093800 71 123 0.0 0.0 0.00 0.00 0.00 95 1013.1
20200710090800 71 124 0.0 0.0 0.00 0.00 0.00 95 1013.4
20200710083801 71 123 0.0 0.0 0.00 0.00 0.00 95 1013.5
20200710080801 70 124 0.0 0.0 0.00 0.00 0.00 95 1013.8
20200710073801 69 124 0.0 0.0 0.00 0.00 0.00 94 1014.0
20200710070801 70 123 0.0 0.0 0.00 0.00 0.00 94 1014.0
20200710063801 70 123 0.0 0.0 0.00 0.00 0.00 94 1014.5
20200710060801 71 124 0.0 0.0 0.00 0.00 0.00 93 1014.7
20200710053801 71 124 0.0 0.0 0.00 0.00 0.00 93 1014.8
20200710050800 71 124 0.0 0.0 0.00 0.00 0.00 93 1014.8
20200710043801 71 124 0.0 0.0 0.00 0.00 0.00 92 1014.9
20200710040831 72 124 0.0 0.0 0.00 0.00 0.00 91 1014.9
20200710033801 73 123 0.0 0.0 0.00 0.00 0.00 90 1014.3
20200710030801 74 124 0.0 0.0 0.00 0.00 0.00 89 1014.1
20200710023801 74 123 0.0 0.0 0.00 0.00 0.00 87 1013.8
20200710020801 75 124 0.0 0.0 0.00 0.00 0.00 86 1013.8
20200710013801 77 124 0.0 0.0 0.00 0.00 0.00 84 1013.7
20200710010800 78 123 0.0 0.0 0.00 0.00 0.00 80 1013.6